カタログに戻る

STARLINK-1559

運用中通信VLEO
NORAD 46077·PAYLOAD·🇺🇸 United States

打ち上げ Aug 7, 2020 から Cape Canaveral Space Force Station

Loading…

次のパス (今後24時間)

TLE

最新Source: CelesTrak SupGP

元期: Sep 14, 2026, 11:30 UTC

1 46077C 20055BC  26257.47965278  .00106430  00000+0  20371-2 0  2571
2 46077  53.0174 262.8208 0003433  26.1473 152.7748 15.47399700    10

AllMySatでSTARLINK-1559をリアルタイム追跡

Download on the App Store